"Pseudo-MPEC" for C8AY5Y2

Created 2022 Dec 9 2:22:04 UT using Find_Orb

Click here for an explanation of pseudo-MPECs

 
 Astrometry: 
     C8AY5Y2  C2022 07 20=yG'ImaG9jX+hGwY%y`M80L@v).m(/t+5Rp;wNGeO=c/Cbi)i\]SF52
     C8AY5Y2  C2022 07 20bW)kevMtKYQ`1GV.OWN$t7gqSWTvm7OUIYh/M=Z`nuroQZD..\yDF52
     C8AY5Y2  C2022 07 20.,Ub(HTX##k#k*.5kVd=KowI#`9_JGl%0NM`*AQaf,kOu\+_y1TQF52
     C8AY5Y2  C2022 09 02417:JPLvCAstrometry\KJT1Tu=;;#-DxC*7wokN)VexZ;,8`B=0F52
     C8AY5Y2  C2022 09 02v(?KE4gHAe?o7d\jn8/FMJbYH33x,J;@kd0d[QD8AlQP8XT!7K#mF52
     C8AY5Y2*1C2022 11 02.06454517 59 44.891+43 39 19.58   ~BEFq 20.62GVNEOCPG96
     C8AY5Y2 1C2022 11 02.07034217 59 44.977+43 39 16.70   ~BEFq 21.55GVNEOCPG96
     C8AY5Y2 1C2022 11 02.07615517 59 45.053+43 39 14.04   ~BEFq 21.07GVNEOCPG96
     C8AY5Y2 1C2022 11 02.08195117 59 45.089+43 39 11.30   ~BEFq 20.80GVNEOCPG96
     C8AY5Y2 KC2022 11 02.15618617 59 46.028+43 38 38.54   ~B24b 21.00GVNEOCPI52
     C8AY5Y2 KC2022 11 02.16384417 59 46.072+43 38 35.63   ~B24b 20.54GVNEOCPI52
     C8AY5Y2 KC2022 11 07.07290718 00 56.502+43 04 28.45   ~B737 20.88GVNEOCPI52
     C8AY5Y2 KC2022 11 07.09398718 00 56.844+43 04 20.17   ~B737 21.06GVNEOCPI52
     C8AY5Y2 KC2022 11 07.11510118 00 57.172+43 04 11.60   ~B737 20.91GVNEOCPI52
     C8AY5Y2 DC2022 11 12^jlTvpp=;Z3KxH+TyPm@BxJ5VX6G)9;B^avZWredacted;lQLdQ%695
     C8AY5Y2 DC2022 11 12273eA_cX/R4Bh6K\QG@8DTIj`Oq$PkqcV8DV%.kGQ[M32t-JaMc!695
     C8AY5Y2 DC2022 11 12Z\dqT'Ml%iH\I1Mpb.Cut\xclick6wKyyM3%cQv=YId^mf@wGf9/695
     C8AY5Y2 |C2022 11 1604)(J'rHhere,LG39wkn$%XLy7hP^/jH?X+!)gMQsyR-mX^^4RmeH06
     C8AY5Y2 |C2022 11 16X@dIb:.q^0j=okF\?Q0r]qeoU#)a?PLRpj!Y_c*CMu`Cf`%_7i2NH06
     C8AY5Y2 KC2022 11 26`wCoUWNW]Z'N6`gSEd'@%J`e)FWs2+3c))for/`m@w'H%=blq-1xL01
     C8AY5Y2 KC2022 11 26M6h!_422c!explanation)(dCO+@V-FNIlEW#w^9SLol:'%:y%XbL01

Station data:
(695) Kitt Peak  (N31.958395 W111.594670)  US/Arizona. Measurer S. Deen.
   3.5-m f/1.75 reflector + CCD0.9-m f/7.5 reflector + CCD4.0-m
   Ritchey-Chrétien + CCD0.61-m f/3.5 Schmidt + CCD2.3-m f/9 reflector + CCD.
(F52) Pan-STARRS 2, Haleakala  (N20.707382 W156.255910)  US/Hawaii.
   Observers J. Bulger, T. Dukes, T. Lowe, A. Schultz, M. Willman. Measurers
   K. Chambers, S. Chastel, T. de Boer, L. Denneau, J. Fairlamb, H.
   Flewelling, M. Huber, C.-C. Lin, E. Magnier, Y. Ramanjooloo, R. Wainscoat,
   R. Weryk. 1.8-m Ritchey-Chrétien + CCD.
(G96) Mt. Lemmon Survey  (N32.442751 W110.788720)  US/Arizona.  Observers T.
   A. Pruyne, B. M. Africano, E. J. Christensen, G. A. Farneth, D. C. Fuls,
   A. R. Gibbs, A. D. Grauer, H. Gröller, J. A. Johnson, R. A. Kowalski, S.
   M. Larson, G. J. Leonard, D. Rankin, R. L. Seaman, F. C. Shelly, K. W.
   Wierzchoś. 1.5-m reflector + 10K CCD.
(H06) RAS Observatory, Mayhill  (N32.903322 W105.528700)  US/New
   Mexico.  Observer H. Sato. 0.43-m f/6.8 astrograph + CCD + f/4.5 focal
   reducer0.25-m f/3.4 reflector + CCD0.50-m f/6.8 reflector + CCD + f/4.5
   focal reducer0.10-m f/5.0 astrograph + CCD.
(I52) Steward Observatory, Mt. Lemmon Station  (N32.442544 W110.788920)
   US/Arizona.  Observers T. A. Pruyne, B. M. Africano, E. J. Christensen, G.
   A. Farneth, D. C. Fuls, A. R. Gibbs, A. D. Grauer, H. Gröller, J. A.
   Johnson, R. A. Kowalski, S. M. Larson, G. J. Leonard, D. Rankin, R. L.
   Seaman, F. C. Shelly, K. W. Wierzchoś. 1.0-m reflector + CCD.
(L01) Višnjan Observatory, Tičan  (N45.290897 E13.749300)  Croatia.
   Observers K. Korlević, D. Pujagic, V. Dobos. Measurers D. Pujagic, K.
   Korlević. 1.0-m f/2.9 reflector + CCD.

Orbital elements:  C8AY5Y2
   Perihelion 2023 Nov 1.95532 +/- 0.0272 TT = 22:55:39 (JD 2460250.45532)
Epoch 2022 Nov 26.0 TT = JDT 2459909.5                        AutoNEOCP
M 358.49074098 +/- 0.0029           (J2000 ecliptic)
n   0.00442655 +/- 8.27e-6          Peri.  168.96294 +/- 0.0018
a  36.7359981 +/- 0.0458            Node   332.86540 +/- 0.0019
e   0.9438352 +/- 7.4e-5            Incl.   98.90739 +/- 0.0008
P 222.66                   H 14.2   G  0.15   U  4.9
q 2.06326850 +/- 0.000188    Q 71.4087278 +/- 0.0917
From 21 observations 2022 July 20-Nov. 26; mean residual 0".22
Residuals in arcseconds: 
220720 F52  .04+  .08-    221102 G96  .01+  .06+    221112 695  .17+  .09+    
220720 F52  .04+  .03-    221102 G96  .32-  .12-    221112 695  .20+  .10+    
220720 F52  .19+  .00     221102 I52  .48+  .02-    221112 695  .22+  .11+    
220902 F52  .18-  .18-    221102 I52  .03-  .47+    221116 H06  .01-  .20+    
220902 F52  .28-  .09-    221107 I52  .06+  .18-    221116 H06  .08-  .25+    
221102 G96  .31-  .47+    221107 I52  .12+  .04+    221126 L01  .23-  .68-    
221102 G96  .09-  .15+    221107 I52  .00   .01-    221126 L01  .08-  .43-    

Ephemerides (geocentric):
Date (UTC) HH   RA             Dec           delta  r     elong  mag " sig PA
---- --------  ------------   ------------  ------ ------ -----  --- --------
2022 12 09 02  18 15 45.837   +40 52 20.35  4.3587 4.0575  65.9 21.2 .302  71
2022 12 09 03  18 15 47.372   +40 52 16.99  4.3585 4.0572  65.9 21.2 .303  71
2022 12 09 04  18 15 48.907   +40 52 13.66  4.3582 4.0568  65.9 21.2 .303  71
2022 12 09 05  18 15 50.443   +40 52 10.34  4.3580 4.0565  65.9 21.2 .304  71
2022 12 09 06  18 15 51.980   +40 52 07.04  4.3577 4.0562  65.9 21.2 .304  71
2022 12 09 07  18 15 53.518   +40 52 03.76  4.3575 4.0558  65.9 21.1 .305  71
2022 12 09 08  18 15 55.056   +40 52 00.50  4.3573 4.0555  65.9 21.1 .305  71
2022 12 09 09  18 15 56.595   +40 51 57.26  4.3570 4.0551  65.9 21.1 .306  71
2022 12 09 10  18 15 58.135   +40 51 54.04  4.3568 4.0548  65.9 21.1 .307  71
2022 12 09 11  18 15 59.676   +40 51 50.84  4.3565 4.0545  65.9 21.1 .307  71
2022 12 09 12  18 16 01.217   +40 51 47.66  4.3563 4.0541  65.8 21.1 .308  71
2022 12 09 13  18 16 02.760   +40 51 44.50  4.3561 4.0538  65.8 21.1 .308  71
2022 12 09 14  18 16 04.302   +40 51 41.36  4.3558 4.0535  65.8 21.1 .309  71
2022 12 09 15  18 16 05.846   +40 51 38.24  4.3556 4.0531  65.8 21.1 .309  70
2022 12 09 16  18 16 07.391   +40 51 35.14  4.3553 4.0528  65.8 21.1 .310  70
2022 12 09 17  18 16 08.936   +40 51 32.06  4.3551 4.0524  65.8 21.1 .310  70
2022 12 09 18  18 16 10.482   +40 51 28.99  4.3549 4.0521  65.8 21.1 .311  70
2022 12 09 19  18 16 12.028   +40 51 25.95  4.3546 4.0518  65.8 21.1 .311  70
2022 12 09 20  18 16 13.576   +40 51 22.93  4.3544 4.0514  65.8 21.1 .312  70
2022 12 09 21  18 16 15.124   +40 51 19.93  4.3541 4.0511  65.8 21.1 .312  70
2022 12 09 22  18 16 16.673   +40 51 16.94  4.3539 4.0508  65.8 21.1 .313  70
2022 12 09 23  18 16 18.222   +40 51 13.98  4.3536 4.0504  65.8 21.1 .313  70
2022 12 10 00  18 16 19.773   +40 51 11.04  4.3534 4.0501  65.8 21.1 .314  70
2022 12 10 01  18 16 21.324   +40 51 08.11  4.3532 4.0497  65.8 21.1 .315  70
2022 12 10 02  18 16 22.876   +40 51 05.21  4.3529 4.0494  65.8 21.1 .315  70
2022 12 10 03  18 16 24.428   +40 51 02.32  4.3527 4.0491  65.8 21.1 .316  70
2022 12 10 04  18 16 25.982   +40 50 59.46  4.3524 4.0487  65.7 21.1 .316  70
2022 12 10 05  18 16 27.536   +40 50 56.61  4.3522 4.0484  65.7 21.1 .317  70
2022 12 10 06  18 16 29.091   +40 50 53.79  4.3519 4.0481  65.7 21.1 .317  70
2022 12 10 07  18 16 30.646   +40 50 50.98  4.3517 4.0477  65.7 21.1 .318  70
2022 12 10 08  18 16 32.203   +40 50 48.19  4.3514 4.0474  65.7 21.1 .318  70
2022 12 10 09  18 16 33.760   +40 50 45.43  4.3512 4.0470  65.7 21.1 .319  70
2022 12 10 10  18 16 35.317   +40 50 42.68  4.3510 4.0467  65.7 21.1 .319  70
2022 12 10 11  18 16 36.876   +40 50 39.96  4.3507 4.0464  65.7 21.1 .320  70
2022 12 10 12  18 16 38.435   +40 50 37.25  4.3505 4.0460  65.7 21.1 .321  70
2022 12 10 13  18 16 39.995   +40 50 34.56  4.3502 4.0457  65.7 21.1 .321  70
2022 12 10 14  18 16 41.556   +40 50 31.89  4.3500 4.0454  65.7 21.1 .322  70
2022 12 10 15  18 16 43.117   +40 50 29.25  4.3497 4.0450  65.7 21.1 .322  70
2022 12 10 16  18 16 44.679   +40 50 26.62  4.3495 4.0447  65.7 21.1 .323  70
2022 12 10 17  18 16 46.242   +40 50 24.01  4.3492 4.0443  65.7 21.1 .323  70
2022 12 10 18  18 16 47.806   +40 50 21.42  4.3490 4.0440  65.7 21.1 .324  70
2022 12 10 19  18 16 49.370   +40 50 18.86  4.3487 4.0437  65.7 21.1 .324  70
2022 12 10 20  18 16 50.935   +40 50 16.31  4.3485 4.0433  65.7 21.1 .325  70
2022 12 10 21  18 16 52.501   +40 50 13.78  4.3482 4.0430  65.6 21.1 .325  70
2022 12 10 22  18 16 54.068   +40 50 11.27  4.3480 4.0426  65.6 21.1 .326  70
2022 12 10 23  18 16 55.635   +40 50 08.78  4.3477 4.0423  65.6 21.1 .326  70
2022 12 11 00  18 16 57.203   +40 50 06.31  4.3475 4.0420  65.6 21.1 .327  70
2022 12 11 01  18 16 58.772   +40 50 03.87  4.3473 4.0416  65.6 21.1 .328  70